[[{"header":{"parameterUnit":"m.s-1","parameterCategory":1,"la1":30.2991,"la2":30.254,"lo1":-89.0895,"lo2":-89.0444,"dy":0.0017,"dx":0.0017,"nx":28,"ny":28,"refTime":"2025-04-11T03:00:00:Z","depth":0,"parameterNumber":2,"parameterNumberName":"U-component_of_WINDS"},"data":[0,0,0,0,0,0,0,0,0,0,0,0,0,0,0,0,0,0,0,0,0,0,0,0,0,0,0,0,0,0,0,0,0,0,0,0,0,0,0,0,0,0,0,0,0,0,0,0,0,0,0,0,0,0,0,0,0,0,3.6055,3.6055,0,3.605,3.605,3.605,3.5914,3.5911,3.5907,3.5904,3.5901,3.5904,3.5908,0,0,0,0,0,0,0,0,0,0,0,0,0,3.5953,3.5956,3.6055,3.6055,3.6055,3.605,3.605,3.605,3.5915,3.5911,3.5906,3.5902,3.59,3.5904,3.5908,0,0,0,0,0,0,0,0,0,0,0,0,0,3.5978,3.5956,3.6055,3.5987,3.5981,3.605,3.605,3.605,3.5916,3.5911,3.5905,3.59,3.5899,3.5904,3.5908,3.6043,0,0,3.5923,3.5925,0,0,0,0,0,0,0,0,3.5976,3.5982,3.5997,3.5992,3.5985,3.5977,3.6012,3.6048,3.5917,3.5941,3.5904,3.5898,3.5931,3.5933,3.5943,3.6043,3.6042,3.5923,3.5926,3.5928,3.593,0,0,0,0,0,0,0,3.5975,3.5981,3.6053,3.5998,3.599,3.5958,3.5956,3.6019,3.5966,3.5938,3.5928,3.5929,3.5927,3.5939,3.5942,3.6042,3.5923,3.5927,3.593,3.5932,3.6254,3.626,0,0,0,0,0,0,3.5982,3.5981,3.6053,3.6053,3.5968,3.5964,3.5962,3.5985,3.5964,3.5956,3.5934,3.5923,3.5934,3.5937,3.5942,3.61,3.5928,3.5933,3.5935,3.6249,3.6256,3.6262,0,0,0,0,0,0,3.598,3.599,3.6054,3.6014,3.602,3.5972,3.5999,3.5988,3.6,3.5961,3.5951,3.5956,3.593,3.5935,3.6019,3.6098,3.5935,3.5939,3.6242,3.6251,3.6259,3.6416,0,0,0,0,0,0,3.5978,3.599,3.604,3.6016,3.6022,3.6131,3.6004,3.5992,3.6008,3.5994,3.5979,3.5972,3.5926,3.6013,3.6024,3.6101,3.5943,3.6235,3.6246,3.6256,3.6404,3.6429,3.6451,0,0,0,0,0,3.5975,3.6084,3.6043,3.6053,3.6083,3.6135,3.6139,3.6083,3.6015,3.6066,3.6041,3.5972,3.6087,3.6022,3.6034,3.6114,3.623,3.6243,3.6255,3.6393,3.6424,3.645,0,0,0,0,0,0,3.6119,3.608,3.6034,3.6138,3.6141,3.6112,3.6174,3.6117,3.6139,3.6126,3.6056,3.6054,3.6149,3.6139,3.6068,3.6244,3.6146,3.6162,3.6247,3.6276,3.6299,3.6301,3.5947,0,0,0,0,0,3.6163,3.6207,3.6171,3.6267,3.6271,3.6223,3.6243,3.62,3.62,3.6201,3.6182,3.6186,3.6223,3.6249,3.628,3.6401,3.6397,3.6462,3.6485,3.6505,3.652,3.6586,3.6615,3.6304,3.6304,3.6304,0,0,3.6254,3.6238,3.627,3.6296,3.6292,3.6342,3.6224,3.6281,3.6317,3.6209,3.6288,3.6275,3.6274,3.6379,3.6423,3.6373,3.6605,3.6521,3.6537,3.6541,3.6602,3.6632,3.6658,3.6313,3.6311,3.631,0,0,3.6446,3.6437,3.6518,3.6517,3.6514,3.6481,3.6501,3.6481,3.6468,3.6546,3.6467,3.6509,3.6574,3.6578,3.6588,3.6784,3.6722,3.6796,3.6919,3.6984,3.7008,3.703,3.7102,3.7129,3.681,3.6811,3.6811,0,3.656,3.663,3.6566,3.6629,3.6643,3.6547,3.6629,3.6632,3.664,3.6653,3.6597,3.6677,3.667,3.6775,3.6823,3.6833,3.6855,3.6798,3.701,3.7031,3.705,3.7118,3.7145,3.682,3.6819,3.6818,3.6817,0,3.6772,3.6822,3.6887,3.6897,3.6918,3.699,3.6939,3.6969,3.6924,3.6899,3.698,3.6968,3.6997,3.7018,3.6975,3.7118,3.7087,3.7022,3.6922,3.709,3.7153,3.7178,3.6833,3.683,3.6827,3.6825,0,0,3.7055,3.7029,3.7055,3.7059,3.7049,3.7087,3.7155,3.7183,3.7211,3.722,3.7277,3.7335,3.7274,3.7286,3.7243,3.73,3.7459,3.7227,3.7226,3.7272,3.7618,3.767,3.7701,3.7417,3.7422,3.7425,3.7619,0,3.7242,3.7357,3.7302,3.7424,3.7471,3.7381,3.7441,3.7443,3.7421,3.7458,3.7433,3.7476,3.7392,3.7399,3.7451,3.7428,3.7527,3.7413,3.7472,3.7475,3.7477,3.7733,3.7787,3.7971,3.7643,3.7647,3.765,0,3.7476,3.7495,3.7622,3.7605,3.7623,3.7677,3.77,3.7735,3.7736,3.7716,3.7731,3.7675,3.7742,3.7643,3.7736,3.766,3.7681,3.7673,3.7679,3.7684,3.7574,3.7748,3.8028,3.8056,3.7688,3.7685,3.7682,0,3.7673,3.773,3.7814,3.782,3.7802,3.7843,3.7838,3.7833,3.7854,3.7873,3.7887,3.7914,3.793,3.7953,3.7907,3.7838,3.8008,3.7904,3.7996,3.7997,3.8037,3.8036,3.8327,3.8047,3.8047,3.8046,3.8046,0,3.7889,3.7971,3.7902,3.7954,3.8044,3.7981,3.8072,3.8056,3.8053,3.8102,3.8026,3.8073,3.8008,3.8049,3.8013,3.8098,3.8105,3.8093,3.8083,3.8101,3.8103,3.8115,3.8102,3.8053,3.8052,3.805,3.8049,0,3.8126,3.8082,3.8168,3.8144,3.814,3.8208,3.8188,3.8236,3.8208,3.8271,3.8282,3.824,3.8285,3.8241,3.8283,3.8259,3.8374,3.8344,3.8374,3.8366,3.8462,3.8455,3.8773,3.8813,3.8505,3.8508,3.8511,0,3.8268,3.8328,3.8311,3.8338,3.8338,3.8382,3.8402,3.8343,3.8369,3.8375,3.8423,3.8461,3.8489,3.8566,3.854,3.8573,3.8545,3.8654,3.855,3.8567,3.855,3.8548,3.8555,3.8677,3.868,3.8683,3.8686,0,3.8526,3.8502,3.8534,3.8561,3.8588,3.8606,3.8618,3.8644,3.8583,3.8616,3.8661,3.8683,3.8726,3.8767,3.8792,3.8787,3.8729,3.8719,3.8742,3.8763,3.8779,3.8774,3.8435,3.8712,3.8709,3.8707,3.8706,3.8705,3.8721,3.8772,3.8768,3.8808,3.8811,3.8824,3.8869,3.8847,3.8883,3.8914,3.8877,3.8933,3.8934,3.8961,3.8964,3.9009,3.8963,3.8996,3.9005,3.9015,3.9031,3.877,3.9013,3.9012,3.9011,3.901,3.901,0,3.8977,3.8971,3.9008,3.9027,3.9059,3.8998,3.9009,3.904,3.9091,3.9096,3.9125,3.9178,3.9218,3.9195,3.9229,3.9269,3.9243,3.928,3.9278,3.9279,3.9068,3.9046,3.9301,3.9301,3.9301,3.9301,3.9301,3.9301,3.9115,3.9198,3.9174,3.9259,3.9252,3.9306,3.9318,3.9331,3.9335,3.9398,3.943,3.9414,3.9409,3.9442,3.9476,3.9468,3.9486,3.9534,3.9517,3.9322,3.9293,3.9266,3.9245,3.9538,3.9538,3.9724,3.9726,3.9727]},{"header":{"parameterUnit":"m.s-1","parameterCategory":1,"la1":30.2991,"la2":30.254,"lo1":-89.0895,"lo2":-89.0444,"dy":0.0017,"dx":0.0017,"nx":28,"ny":28,"refTime":"2025-04-11T03:00:00:Z","depth":0,"parameterNumber":3,"parameterNumberName":"V-component_of_WINDS"},"data":[0,0,0,0,0,0,0,0,0,0,0,0,0,0,0,0,0,0,0,0,0,0,0,0,0,0,0,0,0,0,0,0,0,0,0,0,0,0,0,0,0,0,0,0,0,0,0,0,0,0,0,0,0,0,0,0,0,0,-3.0545,-3.0546,0,-3.0645,-3.0646,-3.0648,-3.0639,-3.0637,-3.0636,-3.0634,-3.0736,-3.074,-3.0744,0,0,0,0,0,0,0,0,0,0,0,0,0,-3.0344,-3.0348,-3.0545,-3.0546,-3.0547,-3.0645,-3.0647,-3.0648,-3.0639,-3.0637,-3.0635,-3.0634,-3.0735,-3.0739,-3.0744,0,0,0,0,0,0,0,0,0,0,0,0,0,-3.0437,-3.0349,-3.0544,-3.0555,-3.0556,-3.0645,-3.0647,-3.0648,-3.064,-3.0637,-3.0635,-3.0633,-3.0733,-3.0739,-3.0745,-3.0829,0,0,-3.0764,-3.0767,0,0,0,0,0,0,0,0,-3.0432,-3.0444,-3.0552,-3.0554,-3.0556,-3.0627,-3.0613,-3.0709,-3.064,-3.0608,-3.0634,-3.0632,-3.0702,-3.071,-3.0734,-3.0834,-3.0838,-3.0765,-3.0768,-3.0771,-3.0773,0,0,0,0,0,0,0,-3.0425,-3.044,-3.0584,-3.0553,-3.0556,-3.0554,-3.0565,-3.0631,-3.0666,-3.0611,-3.061,-3.0622,-3.0702,-3.0728,-3.0736,-3.084,-3.0764,-3.077,-3.0774,-3.0776,-3.1015,-3.1018,0,0,0,0,0,0,-3.0417,-3.0435,-3.0581,-3.0587,-3.0487,-3.056,-3.0571,-3.0607,-3.0666,-3.0672,-3.0624,-3.0622,-3.0719,-3.0729,-3.074,-3.0843,-3.0771,-3.0777,-3.078,-3.1013,-3.1016,-3.1019,0,0,0,0,0,0,-3.0412,-3.043,-3.0577,-3.0511,-3.053,-3.0565,-3.0605,-3.061,-3.0636,-3.0676,-3.0682,-3.0644,-3.0717,-3.0731,-3.0808,-3.0846,-3.078,-3.0785,-3.101,-3.1014,-3.1017,-3.1049,0,0,0,0,0,0,-3.0407,-3.0428,-3.0461,-3.0512,-3.0533,-3.0643,-3.0608,-3.0614,-3.0647,-3.0644,-3.0696,-3.0703,-3.0717,-3.0798,-3.0814,-3.0854,-3.079,-3.1006,-3.1011,-3.1016,-3.1045,-3.1054,-3.1062,0,0,0,0,0,-3.0399,-3.0465,-3.0462,-3.048,-3.0574,-3.0645,-3.0658,-3.0673,-3.065,-3.0683,-3.0709,-3.0701,-3.084,-3.0806,-3.0823,-3.0866,-3.1004,-3.101,-3.1016,-3.1041,-3.1052,-3.1061,0,0,0,0,0,0,-3.0416,-3.0472,-3.0469,-3.0553,-3.0595,-3.0644,-3.0686,-3.0684,-3.0732,-3.0728,-3.0744,-3.0756,-3.0833,-3.0857,-3.0819,-3.0951,-3.0919,-3.0928,-3.0932,-3.0943,-3.0951,-3.0943,-3.0795,0,0,0,0,0,-3.043,-3.0484,-3.0529,-3.0599,-3.062,-3.0649,-3.0681,-3.0689,-3.0732,-3.075,-3.0781,-3.0823,-3.0877,-3.0911,-3.0962,-3.1049,-3.106,-3.1087,-3.1095,-3.1101,-3.1109,-3.1158,-3.117,-3.1038,-3.1038,-3.1038,0,0,-3.0459,-3.0496,-3.0528,-3.0603,-3.0636,-3.0691,-3.0664,-3.0723,-3.0764,-3.0759,-3.0833,-3.0858,-3.0906,-3.0988,-3.1025,-3.101,-3.1149,-3.1109,-3.1114,-3.1118,-3.1165,-3.1177,-3.1188,-3.1042,-3.1042,-3.1041,0,0,-3.0539,-3.0572,-3.0634,-3.0668,-3.0719,-3.0739,-3.0754,-3.0804,-3.082,-3.0895,-3.0892,-3.0941,-3.1032,-3.1067,-3.1097,-3.1192,-3.1187,-3.1208,-3.1251,-3.1298,-3.1308,-3.1318,-3.1352,-3.1364,-3.1216,-3.1216,-3.1216,0,-3.0567,-3.065,-3.0666,-3.0726,-3.076,-3.0758,-3.0822,-3.0854,-3.0919,-3.0942,-3.0924,-3.1039,-3.1072,-3.1162,-3.1186,-3.121,-3.1227,-3.1202,-3.1306,-3.1315,-3.1324,-3.1357,-3.1369,-3.1218,-3.1218,-3.1218,-3.1218,0,-3.0683,-3.0741,-3.0785,-3.0849,-3.0887,-3.0948,-3.0974,-3.1011,-3.1016,-3.1037,-3.1114,-3.1153,-3.1213,-3.1235,-3.124,-3.1327,-3.1316,-3.1302,-3.127,-3.1339,-3.137,-3.1382,-3.1222,-3.1221,-3.122,-3.122,0,0,-3.0775,-3.0848,-3.0864,-3.0893,-3.095,-3.0995,-3.1057,-3.1116,-3.1147,-3.1192,-3.1245,-3.1323,-3.1311,-3.1344,-3.1354,-3.1395,-3.1468,-3.1376,-3.1377,-3.1392,-3.1566,-3.1576,-3.159,-3.1466,-3.1468,-3.147,-3.1562,0,-3.0861,-3.097,-3.0987,-3.1084,-3.1137,-3.1138,-3.1192,-3.1232,-3.1255,-3.1303,-3.1327,-3.1383,-3.1362,-3.1383,-3.1424,-3.1451,-3.1503,-3.1444,-3.1514,-3.1516,-3.1502,-3.1607,-3.1617,-3.1702,-3.1574,-3.1577,-3.1578,0,-3.0975,-3.1024,-3.1126,-3.1177,-3.12,-3.1248,-3.1304,-3.1351,-3.1397,-3.1411,-3.1449,-3.1454,-3.1518,-3.1484,-3.1573,-3.1532,-3.1562,-3.158,-3.1584,-3.159,-3.1551,-3.1616,-3.173,-3.1742,-3.1597,-3.1596,-3.1594,0,-3.1032,-3.1124,-3.1197,-3.1222,-3.1283,-3.1317,-3.1344,-3.1388,-3.1423,-3.1472,-3.1495,-3.155,-3.1581,-3.1624,-3.1644,-3.1617,-3.1731,-3.1699,-3.1744,-3.1744,-3.1767,-3.1765,-3.1887,-3.1787,-3.1787,-3.1787,-3.1787,0,-3.1126,-3.1188,-3.1224,-3.1268,-3.1338,-3.1358,-3.1426,-3.1452,-3.1492,-3.1542,-3.1546,-3.1593,-3.1617,-3.1667,-3.1683,-3.1755,-3.1768,-3.1781,-3.1784,-3.178,-3.1779,-3.18,-3.1794,-3.179,-3.1789,-3.1789,-3.1788,0,-3.1201,-3.1227,-3.1307,-3.1358,-3.1373,-3.1422,-3.1467,-3.151,-3.1533,-3.1596,-3.1612,-3.1647,-3.1707,-3.1732,-3.1805,-3.1816,-3.1898,-3.1897,-3.1882,-3.1883,-3.1927,-3.1922,-3.2066,-3.2086,-3.1973,-3.1974,-3.1975,0,-3.1258,-3.1306,-3.1364,-3.1398,-3.1426,-3.1481,-3.1517,-3.1538,-3.1575,-3.1633,-3.167,-3.173,-3.1779,-3.1874,-3.1906,-3.1963,-3.1963,-3.2009,-3.1971,-3.1966,-3.1964,-3.196,-3.1965,-3.2016,-3.2017,-3.2018,-3.2019,0,-3.1358,-3.1369,-3.1421,-3.1478,-3.1521,-3.1566,-3.1611,-3.1638,-3.1666,-3.1708,-3.177,-3.1808,-3.1884,-3.1943,-3.2002,-3.2029,-3.2029,-3.2031,-3.2044,-3.204,-3.203,-3.2036,-3.1901,-3.2027,-3.2026,-3.2026,-3.2025,-3.2025,-3.1426,-3.1469,-3.1517,-3.1574,-3.161,-3.1652,-3.1696,-3.1725,-3.1777,-3.184,-3.185,-3.1916,-3.1962,-3.2041,-3.2071,-3.2123,-3.2111,-3.2131,-3.2136,-3.214,-3.2143,-3.2022,-3.2134,-3.2134,-3.2133,-3.2133,-3.2133,0,-3.1526,-3.1557,-3.161,-3.1673,-3.1718,-3.1715,-3.1765,-3.1803,-3.1861,-3.1905,-3.1954,-3.2025,-3.2083,-3.2121,-3.218,-3.2214,-3.2216,-3.2229,-3.2226,-3.2233,-3.215,-3.2133,-3.2227,-3.2227,-3.2227,-3.2227,-3.2227,-3.2227,-3.1583,-3.1656,-3.1673,-3.1764,-3.1795,-3.186,-3.1889,-3.1928,-3.1963,-3.2042,-3.2091,-3.2115,-3.2157,-3.2219,-3.2273,-3.2282,-3.2303,-3.2318,-3.2326,-3.2248,-3.2238,-3.2229,-3.2213,-3.2322,-3.2322,-3.2404,-3.2405,-3.2406]}]]